�N����,����,�~����,�C��,���x,�C��,����,���ϕ���,�ő�u�ԕ���,�ő厞����,���˗�,�I�_���x,�n�����x,�ő啗���N��,DTYPE
"21/10/23","00:10",0.0,13.4,73.6,1012.3,318.2,1.5,2.9,328.0,0.00,8.8,17.2,"00:02:40",1
"21/10/23","00:20",0.0,13.5,73.8,1012.1,274.6,1.7,3.7,255.8,0.00,9.0,17.2,"00:18:04",1
"21/10/23","00:30",0.0,13.4,74.1,1012.3,289.4,1.5,2.4,304.2,0.00,8.9,17.3,"00:23:48",1
"21/10/23","00:40",0.0,13.4,74.4,1012.3,285.0,1.2,2.5,279.7,0.00,9.0,17.0,"00:35:10",1
"21/10/23","00:50",0.0,13.3,74.8,1012.8,304.4,1.5,2.6,342.8,0.00,9.0,17.1,"00:46:42",1
"21/10/23","01:00",0.0,13.3,75.3,1013.3,293.9,1.3,2.5,314.5,0.00,9.1,17.1,"00:53:56",1
"21/10/23","01:10",0.0,13.3,76.0,1013.0,315.2,2.1,3.4,324.6,0.00,9.2,17.1,"01:07:52",1
"21/10/23","01:20",0.0,13.3,76.3,1013.0,304.6,1.5,3.6,311.3,0.00,9.3,17.2,"01:10:56",1
"21/10/23","01:30",0.0,13.1,76.6,1013.0,291.7,1.5,3.5,331.5,0.00,9.1,17.0,"01:29:26",1
"21/10/23","01:40",0.0,13.0,76.9,1013.0,265.9,1.5,3.4,245.7,0.00,9.1,17.1,"01:31:26",1
"21/10/23","01:50",0.0,12.9,77.3,1013.3,302.9,1.5,3.6,329.2,0.00,9.1,17.1,"01:40:50",1
"21/10/23","02:00",0.0,13.1,77.2,1013.3,312.6,2.0,3.2,335.2,0.00,9.2,17.0,"01:54:56",1
"21/10/23","02:10",0.0,13.1,77.0,1013.3,293.6,1.5,3.2,334.3,0.00,9.2,16.9,"02:00:36",1
"21/10/23","02:20",0.0,13.2,77.0,1013.3,305.5,2.0,4.1,337.4,0.00,9.3,17.2,"02:12:50",1
"21/10/23","02:30",0.0,13.4,77.3,1013.8,319.1,2.1,4.9,328.3,0.00,9.6,17.1,"02:28:36",1
"21/10/23","02:40",0.0,13.2,78.2,1013.8,304.6,2.0,3.1,332.5,0.00,9.5,17.0,"02:35:22",1
"21/10/23","02:50",0.0,13.0,79.0,1014.0,301.0,1.5,2.9,328.8,0.00,9.5,16.9,"02:46:00",1
"21/10/23","03:00",0.0,13.0,79.6,1014.0,302.3,1.2,2.7,256.0,0.00,9.6,17.0,"02:54:26",1
"21/10/23","03:10",0.0,12.8,80.1,1014.2,329.4,1.2,1.9,335.7,0.00,9.5,16.9,"03:09:16",1
"21/10/23","03:20",0.0,12.3,81.4,1013.8,304.2,1.5,2.8,319.8,0.00,9.2,16.8,"03:14:48",1
"21/10/23","03:30",0.0,12.2,82.7,1014.0,313.5,1.5,2.2,324.9,0.00,9.4,16.8,"03:29:46",1
"21/10/23","03:40",0.0,12.0,83.3,1014.0,316.4,1.3,2.0,334.8,0.00,9.3,16.5,"03:31:04",1
"21/10/23","03:50",0.0,11.8,84.4,1014.2,318.7,1.7,2.6,345.2,0.00,9.3,16.8,"03:45:38",1
"21/10/23","04:00",0.0,12.2,85.0,1014.2,325.0,2.5,4.8,328.7,0.00,9.8,17.0,"03:55:38",1
"21/10/23","04:10",0.0,12.1,85.3,1014.5,320.5,1.7,2.9,359.0,0.00,9.7,16.8,"04:08:08",1
"21/10/23","04:20",0.0,11.9,85.8,1014.9,318.0,1.5,2.9,339.3,0.00,9.6,16.8,"04:15:32",1
"21/10/23","04:30",0.0,11.7,86.2,1014.7,316.9,1.3,1.9,316.6,0.00,9.5,16.7,"04:22:32",1
"21/10/23","04:40",0.0,11.6,86.6,1014.9,308.8,1.2,1.8,329.7,0.00,9.5,16.6,"04:33:48",1
"21/10/23","04:50",0.0,11.2,87.0,1014.9,309.5,1.3,1.9,331.7,0.00,9.2,16.6,"04:44:06",1
"21/10/23","05:00",0.0,10.9,87.7,1015.2,306.1,1.5,2.1,349.7,0.00,9.0,16.6,"04:57:48",1
"21/10/23","05:10",0.0,10.4,88.1,1015.2,318.2,1.8,2.8,312.2,0.00,8.6,16.4,"05:04:50",1
"21/10/23","05:20",0.0,10.2,88.9,1015.4,326.8,1.5,2.2,326.1,0.00,8.5,16.7,"05:15:48",1
"21/10/23","05:30",0.0,9.8,89.4,1015.4,308.0,1.6,2.4,320.5,0.00,8.2,16.7,"05:29:00",1
"21/10/23","05:40",0.0,9.7,89.9,1015.9,321.6,1.3,2.2,302.2,0.00,8.2,16.5,"05:30:16",1
"21/10/23","05:50",0.0,9.7,90.4,1015.9,308.4,1.3,2.0,312.7,0.00,8.2,16.5,"05:42:02",1
"21/10/23","06:00",0.0,9.7,90.7,1015.6,294.8,1.3,2.1,323.2,0.00,8.3,16.4,"05:55:28",1
"21/10/23","06:10",0.0,9.9,91.0,1016.1,310.8,1.5,2.2,308.6,0.00,8.5,16.5,"06:04:52",1
"21/10/23","06:20",0.0,9.9,91.4,1015.9,314.1,1.7,2.7,316.0,0.00,8.6,16.7,"06:14:20",1
"21/10/23","06:30",0.0,9.9,91.7,1016.1,323.3,1.5,2.1,338.8,0.00,8.7,16.5,"06:21:50",1
"21/10/23","06:40",0.0,9.8,92.0,1016.1,322.0,1.5,2.4,326.3,0.00,8.6,16.5,"06:35:12",1
"21/10/23","06:50",0.0,10.2,92.2,1016.1,325.5,1.8,3.1,342.5,0.00,9.0,16.6,"06:45:08",1
"21/10/23","07:00",0.0,10.4,92.2,1016.6,328.3,1.7,2.4,341.6,0.00,9.2,16.3,"06:52:10",1
"21/10/23","07:10",0.0,10.5,92.3,1016.8,321.1,1.7,2.5,322.0,0.00,9.3,16.2,"07:02:48",1
"21/10/23","07:20",0.0,10.8,92.2,1016.6,326.6,1.7,2.4,336.1,0.01,9.6,16.3,"07:12:24",1
"21/10/23","07:30",0.0,11.5,91.8,1017.3,320.9,2.2,3.6,339.8,0.04,10.3,16.2,"07:22:24",1
"21/10/23","07:40",0.0,12.1,90.7,1017.5,323.5,2.1,3.6,335.7,0.05,10.7,16.3,"07:31:52",1
"21/10/23","07:50",0.0,12.6,89.8,1018.0,325.8,2.3,4.5,340.5,0.09,11.0,16.2,"07:42:32",1
"21/10/23","08:00",0.0,13.3,87.2,1018.2,331.5,2.2,3.9,319.1,0.10,11.3,16.2,"07:58:00",1
"21/10/23","08:10",0.0,14.1,83.8,1019.0,309.5,1.5,3.7,340.7,0.11,11.4,16.2,"08:07:12",1
"21/10/23","08:20",0.0,14.7,78.6,1019.0,324.2,1.5,3.1,322.8,0.12,11.1,16.1,"08:15:52",1
"21/10/23","08:30",0.0,14.7,74.6,1019.4,301.7,1.3,2.6,334.5,0.11,10.3,16.3,"08:20:40",1
"21/10/23","08:40",0.0,14.6,73.2,1019.4,305.1,1.5,2.9,335.9,0.10,9.9,16.2,"08:39:44",1
"21/10/23","08:50",0.0,14.7,73.4,1019.2,289.1,1.3,2.5,248.7,0.15,10.0,16.3,"08:43:52",1
"21/10/23","09:00",0.0,15.0,71.9,1019.0,265.6,1.2,2.6,323.3,0.15,10.0,16.2,"08:50:16",1
"21/10/23","09:10",0.0,15.5,69.3,1019.0,285.4,1.2,2.2,333.5,0.20,9.9,16.4,"09:01:52",1
"21/10/23","09:20",0.0,16.5,66.7,1019.2,296.1,0.8,1.9,321.5,0.25,10.3,16.5,"09:19:28",1
"21/10/23","09:30",0.0,16.0,64.1,1019.4,357.2,1.3,3.3,337.9,0.10,9.3,16.5,"09:22:24",1
"21/10/23","09:40",0.0,15.7,60.7,1019.4,10.5,1.8,3.6,38.3,0.10,8.2,16.3,"09:39:44",1
"21/10/23","09:50",0.0,16.7,59.6,1019.7,349.5,1.3,2.9,333.3,0.30,8.8,16.4,"09:43:52",1
"21/10/23","10:00",0.0,16.9,56.0,1019.7,348.1,2.5,6.2,295.7,0.30,8.1,16.6,"09:59:36",1
"21/10/23","10:10",0.0,16.7,53.7,1019.4,337.3,3.6,7.0,332.3,0.39,7.3,16.4,"10:04:16",1
"21/10/23","10:20",0.0,16.8,50.5,1019.4,349.4,3.0,7.3,332.5,0.36,6.5,16.7,"10:14:16",1
"21/10/23","10:30",0.0,16.7,47.0,1019.2,331.9,4.4,8.9,324.2,0.44,5.4,16.7,"10:27:12",1
"21/10/23","10:40",0.0,16.9,45.7,1019.4,331.2,3.6,9.1,343.5,0.42,5.2,16.6,"10:37:20",1
"21/10/23","10:50",0.0,17.2,45.9,1019.4,337.5,3.2,7.5,329.3,0.42,5.5,16.7,"10:41:20",1
"21/10/23","11:00",0.0,17.4,45.5,1019.4,351.4,2.8,7.9,344.8,0.42,5.6,16.7,"10:51:28",1
"21/10/23","11:10",0.0,17.5,41.8,1019.2,17.8,2.1,5.4,272.7,0.38,4.4,16.6,"11:00:16",1
"21/10/23","11:20",0.0,17.9,39.6,1019.4,1.7,2.2,4.4,22.8,0.47,4.0,16.7,"11:12:56",1
"21/10/23","11:30",0.0,18.4,38.8,1019.2,0.1,1.7,3.7,320.0,0.47,4.2,16.8,"11:24:00",1
"21/10/23","11:40",0.0,18.2,37.8,1019.0,6.4,2.5,5.8,341.2,0.49,3.6,17.0,"11:35:04",1
"21/10/23","11:50",0.0,18.7,39.3,1018.7,1.6,2.1,5.0,340.6,0.50,4.6,16.9,"11:46:56",1
"21/10/23","12:00",0.0,18.6,41.0,1019.0,358.5,2.3,5.8,337.2,0.44,5.1,16.9,"11:50:24",1
"21/10/23","12:10",0.0,17.8,43.7,1018.7,2.5,3.1,6.6,11.6,0.29,5.3,17.0,"12:09:44",1
"21/10/23","12:20",0.0,16.5,49.8,1019.0,357.7,3.1,7.3,343.7,0.12,6.0,17.1,"12:15:12",1
"21/10/23","12:30",0.0,15.5,54.5,1019.4,1.6,3.4,8.6,337.0,0.10,6.4,17.2,"12:22:08",1
"21/10/23","12:40",0.0,15.6,57.3,1019.4,335.3,2.7,5.6,328.9,0.20,7.2,17.3,"12:37:20",1
"21/10/23","12:50",0.0,16.1,57.1,1019.2,323.4,2.7,5.1,315.0,0.33,7.7,17.1,"12:48:08",1
"21/10/23","13:00",0.0,16.8,55.9,1019.2,327.5,2.6,6.5,339.9,0.39,8.0,17.2,"12:59:12",1
"21/10/23","13:10",0.0,17.3,54.5,1019.0,311.0,2.6,5.0,332.0,0.48,8.1,17.3,"13:07:52",1
"21/10/23","13:20",0.0,17.6,52.2,1018.7,341.1,2.7,5.8,354.0,0.40,7.7,17.2,"13:16:56",1
"21/10/23","13:30",0.0,17.2,53.6,1019.0,325.2,2.7,6.2,336.4,0.38,7.8,17.2,"13:25:20",1
"21/10/23","13:40",0.0,17.9,51.3,1018.7,326.7,2.8,6.4,337.8,0.46,7.8,17.3,"13:33:12",1
"21/10/23","13:50",0.0,17.7,49.5,1018.5,326.3,3.0,7.3,334.7,0.37,7.0,17.4,"13:48:56",1
"21/10/23","14:00",0.0,17.6,48.3,1018.7,354.0,2.3,5.9,341.3,0.26,6.6,17.4,"13:55:28",1
"21/10/23","14:10",0.0,17.5,48.9,1018.7,0.1,2.5,5.2,352.5,0.27,6.7,17.5,"14:03:36",1
"21/10/23","14:20",0.0,16.9,49.4,1019.0,15.2,2.6,6.4,12.2,0.12,6.3,17.6,"14:11:20",1
"21/10/23","14:30",0.0,16.7,52.0,1019.4,2.5,2.3,4.4,348.7,0.10,6.8,17.7,"14:21:44",1
"21/10/23","14:40",0.0,16.5,53.8,1019.4,358.1,2.2,4.4,36.4,0.11,7.2,17.6,"14:36:48",1
"21/10/23","14:50",0.0,16.0,56.1,1019.7,353.9,2.3,5.4,333.0,0.09,7.3,17.6,"14:41:44",1
"21/10/23","15:00",0.0,15.8,59.0,1019.7,352.4,1.8,4.3,15.0,0.11,7.9,17.6,"14:52:00",1
"21/10/23","15:10",0.0,15.3,59.6,1019.7,315.1,1.6,3.7,338.3,0.05,7.5,17.6,"15:03:04",1
"21/10/23","15:20",0.0,15.7,61.0,1019.7,328.9,1.7,3.1,318.6,0.15,8.2,17.7,"15:17:04",1
"21/10/23","15:30",0.0,17.0,58.0,1019.4,311.9,2.0,3.4,335.4,0.24,8.7,17.5,"15:23:28",1
"21/10/23","15:40",0.0,17.5,55.6,1019.7,323.9,2.0,5.1,317.9,0.22,8.6,17.5,"15:34:40",1
"21/10/23","15:50",0.0,16.2,55.5,1019.9,350.7,1.8,3.6,352.0,0.02,7.3,17.7,"15:40:02",1
"21/10/23","16:00",0.0,15.5,58.9,1019.9,352.0,1.8,4.5,338.8,0.03,7.5,17.8,"15:51:52",1
"21/10/23","16:10",0.0,16.2,58.6,1019.9,333.2,1.7,4.3,327.1,0.10,8.1,17.7,"16:03:28",1
"21/10/23","16:20",0.0,16.6,56.3,1019.9,346.9,1.8,4.1,339.2,0.07,7.9,17.7,"16:18:32",1
"21/10/23","16:30",0.0,16.2,54.2,1019.7,5.7,2.1,4.0,332.2,0.05,7.0,17.7,"16:29:28",1
"21/10/23","16:40",0.0,15.9,54.3,1020.4,350.5,2.2,5.8,315.3,0.03,6.7,17.7,"16:37:36",1
"21/10/23","16:50",0.0,15.5,54.2,1019.9,356.3,2.1,4.0,3.0,0.01,6.3,17.6,"16:42:16",1
"21/10/23","17:00",0.0,15.0,54.8,1019.9,342.0,1.7,4.0,343.0,0.00,6.0,17.8,"16:54:48",1
"21/10/23","17:10",0.0,14.5,55.9,1020.1,318.1,1.5,3.1,344.6,0.00,5.9,17.7,"17:00:16",1
"21/10/23","17:20",0.0,14.3,55.6,1019.9,322.4,1.8,3.7,336.3,0.00,5.6,17.5,"17:18:36",1
"21/10/23","17:30",0.0,14.0,56.8,1020.4,323.0,1.3,2.4,340.6,0.00,5.6,17.4,"17:21:30",1
"21/10/23","17:40",0.0,13.4,58.5,1020.6,294.2,1.3,2.6,336.7,0.00,5.5,17.7,"17:39:04",1
"21/10/23","17:50",0.0,12.8,61.1,1020.6,318.8,1.1,1.6,314.3,0.00,5.5,17.3,"17:45:06",1
"21/10/23","18:00",0.0,12.0,66.0,1020.8,326.6,1.5,2.1,331.2,0.00,5.9,17.7,"17:55:56",1
"21/10/23","18:10",0.0,11.3,69.1,1020.6,324.5,1.6,2.2,323.9,0.00,5.9,17.4,"18:00:16",1
"21/10/23","18:20",0.0,10.9,70.8,1020.1,324.6,1.6,2.8,322.1,0.00,5.9,17.3,"18:18:56",1
"21/10/23","18:30",0.0,10.7,71.9,1020.4,321.9,1.6,2.7,339.5,0.00,5.9,17.3,"18:21:44",1
"21/10/23","18:40",0.0,10.5,73.1,1020.6,316.1,1.7,2.4,332.4,0.00,5.9,17.3,"18:30:56",1
"21/10/23","18:50",0.0,10.4,74.3,1020.8,325.9,1.8,2.9,338.1,0.00,6.1,17.4,"18:48:56",1
"21/10/23","19:00",0.0,10.4,75.3,1020.8,324.0,2.0,3.2,331.2,0.00,6.3,17.1,"18:53:20",1
"21/10/23","19:10",0.0,10.3,76.0,1020.6,317.5,2.1,2.9,339.8,0.00,6.3,17.1,"19:01:04",1
"21/10/23","19:20",0.0,10.3,76.6,1021.1,316.5,1.8,3.5,326.9,0.00,6.4,17.1,"19:13:04",1
"21/10/23","19:30",0.0,10.0,77.2,1021.1,303.1,1.7,2.6,324.0,0.00,6.2,16.7,"19:20:16",1
"21/10/23","19:40",0.0,9.7,78.0,1021.1,293.2,1.6,2.0,312.9,0.00,6.1,17.1,"19:31:44",1
"21/10/23","19:50",0.0,9.5,79.1,1021.1,295.3,1.6,3.1,321.7,0.00,6.1,16.9,"19:48:16",1
"21/10/23","20:00",0.0,9.5,79.9,1020.6,316.6,1.7,2.7,336.4,0.00,6.2,16.9,"19:57:28",1
"21/10/23","20:10",0.0,9.3,80.3,1021.1,288.5,1.2,2.2,314.0,0.00,6.1,16.8,"20:00:24",1
"21/10/23","20:20",0.0,9.0,81.0,1021.1,295.3,1.7,2.8,304.6,0.00,6.0,16.7,"20:15:36",1
"21/10/23","20:30",0.0,8.9,81.9,1021.3,278.7,1.6,2.1,279.6,0.00,6.0,16.7,"20:25:20",1
"21/10/23","20:40",0.0,8.9,82.8,1021.1,297.4,1.8,2.7,310.3,0.00,6.2,16.7,"20:30:40",1
"21/10/23","20:50",0.0,8.9,83.3,1021.1,295.1,1.7,3.2,314.1,0.00,6.3,16.7,"20:41:20",1
"21/10/23","21:00",0.0,8.9,84.0,1021.3,300.2,2.0,3.4,310.1,0.00,6.4,16.6,"20:59:04",1
"21/10/23","21:10",0.0,9.0,84.4,1021.3,299.7,2.0,3.9,322.4,0.00,6.6,16.6,"21:03:20",1
"21/10/23","21:20",0.0,9.2,84.6,1021.3,304.9,2.0,4.0,319.0,0.00,6.8,16.7,"21:13:12",1
"21/10/23","21:30",0.0,9.0,84.7,1021.5,280.4,1.3,2.1,272.9,0.00,6.6,16.3,"21:22:32",1
"21/10/23","21:40",0.0,8.6,85.1,1021.5,296.6,0.6,2.0,286.2,0.00,6.3,16.4,"21:30:02",1
"21/10/23","21:50",0.0,8.6,85.6,1021.8,293.7,1.6,2.2,291.4,0.00,6.4,16.4,"21:41:36",1
"21/10/23","22:00",0.0,8.8,85.8,1021.3,309.1,1.8,3.4,320.0,0.00,6.6,16.4,"21:50:32",1
"21/10/23","22:10",0.0,8.8,86.0,1021.5,291.8,2.0,2.9,329.7,0.00,6.6,16.4,"22:06:24",1
"21/10/23","22:20",0.0,8.8,86.2,1022.0,295.4,2.2,4.2,315.0,0.00,6.7,16.3,"22:13:28",1
"21/10/23","22:30",0.0,8.8,86.3,1021.5,300.6,2.0,3.2,315.0,0.00,6.7,16.2,"22:24:32",1
"21/10/23","22:40",0.0,8.6,86.3,1021.8,290.5,1.6,2.7,304.3,0.00,6.5,16.2,"22:31:28",1
"21/10/23","22:50",0.0,8.5,86.6,1021.8,282.1,1.8,2.6,319.3,0.00,6.4,16.1,"22:44:08",1
"21/10/23","23:00",0.0,8.6,86.7,1022.0,296.2,2.0,2.9,324.5,0.00,6.6,16.2,"22:58:00",1
"21/10/23","23:10",0.0,8.4,86.9,1021.5,310.4,1.8,3.1,322.9,0.00,6.4,16.2,"23:08:48",1
"21/10/23","23:20",0.0,8.3,86.9,1021.5,287.7,1.5,3.4,275.6,0.00,6.3,16.0,"23:10:48",1
"21/10/23","23:30",0.0,7.7,87.3,1021.5,303.2,1.6,2.6,320.7,0.00,5.8,16.0,"23:29:36",1
"21/10/23","23:40",0.0,7.1,87.5,1021.5,305.8,1.8,2.7,319.6,0.00,5.2,16.1,"23:31:04",1
"21/10/23","23:50",0.0,6.6,88.1,1021.8,280.0,1.0,1.6,279.8,0.00,4.8,15.9,"23:49:44",1
"21/10/23","24:00",0.0,6.9,88.6,1021.8,302.0,1.7,2.4,317.2,0.00,5.2,16.0,"23:52:24",1
